User: anonymous   Login
Location: Juzet
(42.9779°N, 0.7597°E)
Time: 08:58:18
(UTC+00:00)
Language:

Cosmos 2221 Rocket - Orbit

View from above orbital plane
View from above orbital plane
View from above satellite
View from above satellite

Ground track
Ground track

The orbit data is extracted from the following two-line orbital elements,

1 22237U 92080B   20272.88841701 +.00000085 +00000-0 +85459-5 0  9994
2 22237 082.5094 081.6437 0018374 240.1846 119.7540 14.78417945500601
Epoch (UTC): 28 September 2020 21:19:19
Eccentricity: 0.0018374
inclination: 82.5094°
perigee height: 621 km
apogee height: 647 km
right ascension of ascending node: 81.6437°
argument of perigee: 240.1846°
revolutions per day: 14.78417945
mean anomaly at epoch: 119.7540°
orbit number at epoch: 50060

The dashed part of the orbit path shows where the satellite is in the earth's shadow,  

DLR